Home > Time Zones > World Clock > Weather > Nigeria > Uyo > Past weeks

Flag for Nigeria Weather past 2 weeks in Uyo, Nigeria

Now
73 °F

Thunderstorms. Passing clouds.


Feels Like: 68 °F
Forecast: 74 / 91 °F
Wind: 6 mph from Southwest

Location: Malabo/Fernando Poo

Current Time: Oct 21, 2014 at 1:49:21 AM

Latest Report: Oct 21, 2014 at 1:00 AM


Visibility: N/A

Pressure: 29.89 "Hg

Humidity: 100%

Dew point: 73 °F

Location of UyoLocation

Historic Weather in Uyo — Graph

°F

Uyo temperature yesterday

Maximum temperature yesterday: 84 °F (at 10:00 AM)
Minimum temperature yesterday: 73 °F (at 6:00 AM)
Average temperature yesterday: 79 °F

Past Weeks' High & Low Weather Summary

 TemperatureHumidityPressure
High88 °F (Oct 7, 2:00 PM)100% (Oct 6, 7:00 AM)30.01 "Hg (Oct 6, 7:00 AM)
Low70 °F (Oct 13, 5:00 AM)55% (Oct 7, 2:00 PM)29.80 "Hg (Oct 8, 4:00 PM)
Average78 °F87%29.90 "Hg
* Reported Midnight between Oct 5 and Oct 6 — Midnight between Oct 20 and Oct 21, Uyo, Weather by CustomWeather, © 2014

Note: Actual official high and low records may vary slightly from our data, if they occured in-between our weather recording intervals... More about our weather records

Advertising

Uyo weather history for previous 24 hours

 ConditionsComfort  
Time TempWeatherWind HumidityBarometerVisibility
12:00 AM
Oct 21
73 °FThunderstorms. Passing clouds.2 mph100%29.92 "HgN/A
11:00 PM
Oct 20
75 °FThunderstorms. Passing clouds.No wind94%29.92 "HgN/A
10:00 PM77 °FThunderstorms. Passing clouds.7 mph89%29.92 "HgN/A
9:00 PM77 °FThunderstorms. Passing clouds.8 mph94%29.92 "HgN/A
8:00 PM77 °FThunderstorms. Passing clouds.8 mph94%29.89 "HgN/A
7:00 PM77 °FThunderstorms. Passing clouds.6 mph94%29.89 "HgN/A
6:00 PM79 °FScattered clouds.8 mph84%29.83 "HgN/A
5:00 PM81 °FPassing clouds.8 mph84%29.83 "HgN/A
4:00 PM82 °FScattered clouds.12 mph79%29.83 "HgN/A
3:00 PM82 °FScattered clouds.13 mph79%29.83 "HgN/A
1:00 PM84 °FThunderstorms. Broken clouds.10 mph74%29.89 "HgN/A
12:00 PM82 °FThunderstorms. Broken clouds.9 mph79%29.92 "HgN/A
11:00 AM82 °FScattered clouds.8 mph79%29.95 "HgN/A
10:00 AM84 °FScattered clouds.6 mph74%29.95 "HgN/A
9:00 AM82 °FPassing clouds.No wind70%29.95 "HgN/A
8:00 AM77 °FScattered clouds.No wind83%29.95 "HgN/A
7:00 AM73 °FScattered clouds.No wind100%29.92 "HgN/A
6:00 AM73 °FPassing clouds.No wind94%29.89 "HgN/A
4:00 AM77 °FPassing clouds.3 mph89%29.89 "HgN/A
3:00 AM77 °FPassing clouds.6 mph89%29.89 "HgN/A
2:00 AM77 °FPassing clouds.10 mph94%29.89 "HgN/A
1:00 AM77 °FPassing clouds.10 mph89%29.92 "HgN/A
Weather by CustomWeather, © 2014

See weather overviewHow to use our weather pages